Replicate;Lieu pr�l�vement;Date;Time;Sample N�;Temperature (�C);pH;ORP (mV);Conductivity (�S/cm);O2 (mg/l);O2 (%Sat);
coupled 1 plant;501;17/09/2014;15:45:00;54;21.40;;;;7.67;88;
coupled 1 plant;501;17/09/2014;15:50:00;55;21.30;;;;7.67;88;
coupled 1 plant;501;17/09/2014;15:55:00;56;21.30;;;;7.64;88;
coupled 1 plant;501;17/09/2014;16:00:00;57;21.30;;;;7.64;88;
coupled 1 plant;501;17/09/2014;16:05:00;58;21.40;;;;7.65;88;
coupled 1 plant;501;17/09/2014;16:10:00;59;21.40;;;;7.61;88;
coupled 1 plant;501;17/09/2014;16:15:00;60;21.40;;;;7.60;87;
coupled 1 plant;501;17/09/2014;16:20:00;61;21.40;;;;7.57;87;
coupled 1 plant;501;17/09/2014;16:25:00;62;21.40;;;;7.49;86;
coupled 1 plant;501;17/09/2014;16:30:00;63;21.40;;;;7.41;85;
coupled 1 plant;501;17/09/2014;16:35:00;64;21.40;;;;7.46;86;
coupled 1 plant;501;17/09/2014;16:40:00;65;21.40;;;;7.49;86;
coupled 1 plant;501;17/09/2014;16:45:00;66;21.40;;;;7.47;86;
coupled 1 plant;501;17/09/2014;16:50:00;67;21.40;;;;7.52;87;
coupled 1 plant;501;17/09/2014;16:55:00;68;21.40;;;;7.55;87;
coupled 1 plant;501;17/09/2014;17:00:00;69;21.40;;;;7.53;87;
coupled 1 plant;501;17/09/2014;17:05:00;70;21.50;;;;7.56;87;
coupled 1 plant;501;17/09/2014;17:10:00;71;21.50;;;;7.63;88;
coupled 1 plant;501;17/09/2014;17:15:00;72;21.50;;;;7.63;88;
coupled 1 plant;501;17/09/2014;17:20:00;73;21.50;;;;7.62;88;
coupled 1 plant;501;17/09/2014;17:25:00;74;21.50;;;;7.60;88;
coupled 1 plant;501;17/09/2014;17:30:00;75;21.50;;;;7.57;87;
coupled 1 plant;501;17/09/2014;17:35:00;76;21.50;;;;7.58;88;
coupled 1 plant;501;17/09/2014;17:40:00;77;21.50;;;;7.54;87;
coupled 1 plant;501;17/09/2014;17:45:00;78;21.50;;;;7.52;87;
coupled 1 plant;501;17/09/2014;17:50:00;79;21.50;;;;7.46;86;
coupled 1 plant;501;17/09/2014;17:55:00;80;21.60;;;;7.43;86;
coupled 1 plant;501;17/09/2014;18:00:00;81;21.60;;;;7.45;86;
coupled 1 plant;501;17/09/2014;18:05:00;82;21.60;;;;7.49;87;
coupled 1 plant;501;17/09/2014;18:10:00;83;21.60;;;;7.51;87;
coupled 1 plant;501;17/09/2014;18:15:00;84;21.60;;;;7.52;87;
coupled 1 plant;501;17/09/2014;18:20:00;85;21.60;;;;7.51;87;
coupled 1 plant;501;17/09/2014;18:25:00;86;21.60;;;;7.55;87;
coupled 1 plant;501;17/09/2014;18:30:00;87;21.60;;;;7.52;87;
coupled 1 plant;501;17/09/2014;18:35:00;88;21.60;;;;7.51;87;
coupled 1 plant;501;17/09/2014;18:40:00;89;21.60;;;;7.51;87;
coupled 1 plant;501;17/09/2014;18:45:00;90;21.60;;;;7.52;87;
coupled 1 plant;501;17/09/2014;18:50:00;91;21.60;;;;7.49;87;
coupled 1 plant;501;17/09/2014;18:55:00;92;21.60;;;;7.46;86;
coupled 1 plant;501;17/09/2014;19:00:00;93;21.60;;;;7.45;86;
coupled 1 plant;501;17/09/2014;19:05:00;94;21.60;;;;7.39;85;
coupled 1 plant;501;17/09/2014;19:10:00;95;21.50;;;;7.33;85;
coupled 1 plant;501;17/09/2014;19:15:00;96;21.50;;;;7.35;85;
coupled 1 plant;501;17/09/2014;19:20:00;97;21.50;;;;7.28;84;
coupled 1 plant;501;17/09/2014;19:25:00;98;21.50;;;;7.22;83;
coupled 1 plant;501;17/09/2014;19:30:00;99;21.50;;;;7.13;82;
coupled 1 plant;501;17/09/2014;19:35:00;100;21.50;;;;7.07;82;
coupled 1 plant;501;17/09/2014;19:40:00;101;21.50;;;;6.99;81;
coupled 1 plant;501;17/09/2014;19:45:00;102;21.50;;;;6.88;79;
coupled 1 plant;501;17/09/2014;19:50:00;103;21.50;;;;6.68;77;
coupled 1 plant;501;17/09/2014;19:55:00;104;21.50;;;;6.67;77;
coupled 1 plant;501;17/09/2014;20:00:00;105;21.50;;;;6.68;77;
coupled 1 plant;501;17/09/2014;20:05:00;106;21.50;;;;6.64;77;
coupled 1 plant;501;17/09/2014;20:10:00;107;21.50;;;;6.55;76;
coupled 1 plant;501;17/09/2014;20:15:00;108;21.40;;;;6.46;75;
coupled 1 plant;501;17/09/2014;20:20:00;109;21.40;;;;6.40;74;
coupled 1 plant;501;17/09/2014;20:25:00;110;21.40;;;;6.36;73;
coupled 1 plant;501;17/09/2014;20:30:00;111;21.40;;;;6.31;73;
coupled 1 plant;501;17/09/2014;20:35:00;112;21.40;;;;6.22;72;
coupled 1 plant;501;17/09/2014;20:40:00;113;21.40;;;;6.13;71;
coupled 1 plant;501;17/09/2014;20:45:00;114;21.30;;;;6.03;69;
coupled 1 plant;501;17/09/2014;20:50:00;115;21.30;;;;5.88;68;
coupled 1 plant;501;17/09/2014;20:55:00;116;21.30;;;;5.80;67;
coupled 1 plant;501;17/09/2014;21:00:00;117;21.30;;;;5.75;66;
coupled 1 plant;501;17/09/2014;21:05:00;118;21.30;;;;5.67;65;
coupled 1 plant;501;17/09/2014;21:10:00;119;21.30;;;;5.58;64;
coupled 1 plant;501;17/09/2014;21:15:00;120;21.30;;;;5.52;63;
coupled 1 plant;501;17/09/2014;21:20:00;121;21.20;;;;5.45;63;
coupled 1 plant;501;17/09/2014;21:25:00;122;21.20;;;;5.43;62;
coupled 1 plant;501;17/09/2014;21:30:00;123;21.20;;;;5.40;62;
coupled 1 plant;501;17/09/2014;21:35:00;124;21.20;;;;5.34;61;
coupled 1 plant;501;17/09/2014;21:40:00;125;21.20;;;;5.29;61;
coupled 1 plant;501;17/09/2014;21:45:00;126;21.10;;;;5.23;60;
coupled 1 plant;501;17/09/2014;21:50:00;127;21.10;;;;5.19;59;
coupled 1 plant;501;17/09/2014;21:55:00;128;21.10;;;;5.12;59;
coupled 1 plant;501;17/09/2014;22:00:00;129;21.10;;;;5.05;58;
coupled 1 plant;501;17/09/2014;22:05:00;130;21.10;;;;5.01;57;
coupled 1 plant;501;17/09/2014;22:10:00;131;21.10;;;;4.99;57;
coupled 1 plant;501;17/09/2014;22:15:00;132;21.10;;;;4.97;57;
coupled 1 plant;501;17/09/2014;22:20:00;133;21.10;;;;4.94;57;
coupled 1 plant;501;17/09/2014;22:25:00;134;21.10;;;;4.90;56;
coupled 1 plant;501;17/09/2014;22:30:00;135;21.00;;;;4.84;55;
coupled 1 plant;501;17/09/2014;22:35:00;136;21.00;;;;4.81;55;
coupled 1 plant;501;17/09/2014;22:40:00;137;21.00;;;;4.75;54;
coupled 1 plant;501;17/09/2014;22:45:00;138;21.00;;;;4.70;54;
coupled 1 plant;501;17/09/2014;22:50:00;139;21.00;;;;4.64;53;
coupled 1 plant;501;17/09/2014;22:55:00;140;21.00;;;;4.59;52;
coupled 1 plant;501;17/09/2014;23:00:00;141;21.00;;;;4.52;52;
coupled 1 plant;501;17/09/2014;23:05:00;142;21.00;;;;4.47;51;
coupled 1 plant;501;17/09/2014;23:10:00;143;20.90;;;;4.42;50;
coupled 1 plant;501;17/09/2014;23:15:00;144;20.90;;;;4.39;50;
coupled 1 plant;501;17/09/2014;23:20:00;145;20.90;;;;4.36;50;
coupled 1 plant;501;17/09/2014;23:25:00;146;20.90;;;;4.35;50;
coupled 1 plant;501;17/09/2014;23:30:00;147;20.90;;;;4.34;50;
coupled 1 plant;501;17/09/2014;23:35:00;148;20.90;;;;4.26;49;
coupled 1 plant;501;17/09/2014;23:40:00;149;20.90;;;;4.18;48;
coupled 1 plant;501;17/09/2014;23:45:00;150;20.90;;;;4.15;47;
coupled 1 plant;501;17/09/2014;23:50:00;151;20.90;;;;4.09;47;
coupled 1 plant;501;17/09/2014;23:55:00;152;20.90;;;;4.06;46;
coupled 1 plant;501;18/09/2014;00:00:00;153;20.90;;;;4.00;46;
coupled 1 plant;501;18/09/2014;00:05:00;154;20.90;;;;3.97;45;
coupled 1 plant;501;18/09/2014;00:10:00;155;20.80;;;;3.97;45;
coupled 1 plant;501;18/09/2014;00:15:00;156;20.80;;;;3.93;45;
coupled 1 plant;501;18/09/2014;00:20:00;157;20.80;;;;3.88;44;
coupled 1 plant;501;18/09/2014;00:25:00;158;20.80;;;;3.86;44;
coupled 1 plant;501;18/09/2014;00:30:00;159;20.80;;;;3.83;44;
coupled 1 plant;501;18/09/2014;00:35:00;160;20.80;;;;3.82;44;
coupled 1 plant;501;18/09/2014;00:40:00;161;20.80;;;;3.78;43;
coupled 1 plant;501;18/09/2014;00:45:00;162;20.80;;;;3.76;43;
coupled 1 plant;501;18/09/2014;00:50:00;163;20.80;;;;3.76;43;
coupled 1 plant;501;18/09/2014;00:55:00;164;20.80;;;;3.76;43;
coupled 1 plant;501;18/09/2014;01:00:00;165;20.80;;;;3.72;42;
coupled 1 plant;501;18/09/2014;01:05:00;166;20.80;;;;3.69;42;
coupled 1 plant;501;18/09/2014;01:10:00;167;20.80;;;;3.66;42;
coupled 1 plant;501;18/09/2014;01:15:00;168;20.80;;;;3.64;41;
coupled 1 plant;501;18/09/2014;01:20:00;169;20.80;;;;3.61;41;
coupled 1 plant;501;18/09/2014;01:25:00;170;20.80;;;;3.58;41;
coupled 1 plant;501;18/09/2014;01:30:00;171;20.80;;;;3.57;41;
coupled 1 plant;501;18/09/2014;01:35:00;172;20.80;;;;3.53;40;
coupled 1 plant;501;18/09/2014;01:40:00;173;20.80;;;;3.52;40;
coupled 1 plant;501;18/09/2014;01:45:00;174;20.70;;;;3.48;40;
coupled 1 plant;501;18/09/2014;01:50:00;175;20.70;;;;3.43;39;
coupled 1 plant;501;18/09/2014;01:55:00;176;20.70;;;;3.46;39;
coupled 1 plant;501;18/09/2014;02:00:00;177;20.70;;;;3.41;39;
coupled 1 plant;501;18/09/2014;02:05:00;178;20.70;;;;3.31;38;
coupled 1 plant;501;18/09/2014;02:10:00;179;20.70;;;;3.29;37;
coupled 1 plant;501;18/09/2014;02:15:00;180;20.70;;;;3.27;37;
coupled 1 plant;501;18/09/2014;02:20:00;181;20.70;;;;3.24;37;
coupled 1 plant;501;18/09/2014;02:25:00;182;20.70;;;;3.22;37;
coupled 1 plant;501;18/09/2014;02:30:00;183;20.70;;;;3.20;36;
coupled 1 plant;501;18/09/2014;02:35:00;184;20.70;;;;3.15;36;
coupled 1 plant;501;18/09/2014;02:40:00;185;20.70;;;;3.11;35;
coupled 1 plant;501;18/09/2014;02:45:00;186;20.60;;;;3.08;35;
coupled 1 plant;501;18/09/2014;02:50:00;187;20.60;;;;3.08;35;
coupled 1 plant;501;18/09/2014;02:55:00;188;20.60;;;;3.04;35;
coupled 1 plant;501;18/09/2014;03:00:00;189;20.60;;;;3.03;34;
coupled 1 plant;501;18/09/2014;03:05:00;190;20.60;;;;3.00;34;
coupled 1 plant;501;18/09/2014;03:10:00;191;20.60;;;;2.96;34;
coupled 1 plant;501;18/09/2014;03:15:00;192;20.60;;;;2.95;34;
coupled 1 plant;501;18/09/2014;03:20:00;193;20.60;;;;2.91;33;
coupled 1 plant;501;18/09/2014;03:25:00;194;20.60;;;;2.86;32;
coupled 1 plant;501;18/09/2014;03:30:00;195;20.50;;;;2.83;32;
coupled 1 plant;501;18/09/2014;03:35:00;196;20.50;;;;2.81;32;
coupled 1 plant;501;18/09/2014;03:40:00;197;20.50;;;;2.79;32;
coupled 1 plant;501;18/09/2014;03:45:00;198;20.50;;;;2.77;31;
coupled 1 plant;501;18/09/2014;03:50:00;199;20.50;;;;2.75;31;
coupled 1 plant;501;18/09/2014;03:55:00;200;20.50;;;;2.71;31;
coupled 1 plant;501;18/09/2014;04:00:00;201;20.50;;;;2.69;30;
coupled 1 plant;501;18/09/2014;04:05:00;202;20.50;;;;2.69;30;
coupled 1 plant;501;18/09/2014;04:10:00;203;20.40;;;;2.68;30;
coupled 1 plant;501;18/09/2014;04:15:00;204;20.40;;;;2.67;30;
coupled 1 plant;501;18/09/2014;04:20:00;205;20.40;;;;2.71;31;
coupled 1 plant;501;18/09/2014;04:25:00;206;20.40;;;;2.73;31;
coupled 1 plant;501;18/09/2014;04:30:00;207;20.40;;;;2.73;31;
coupled 1 plant;501;18/09/2014;04:35:00;208;20.40;;;;2.74;31;
coupled 1 plant;501;18/09/2014;04:40:00;209;20.40;;;;2.80;32;
coupled 1 plant;501;18/09/2014;04:45:00;210;20.40;;;;2.74;31;
coupled 1 plant;501;18/09/2014;04:50:00;211;20.40;;;;2.78;31;
coupled 1 plant;501;18/09/2014;04:55:00;212;20.30;;;;2.76;31;
coupled 1 plant;501;18/09/2014;05:00:00;213;20.30;;;;2.70;31;
coupled 1 plant;501;18/09/2014;05:05:00;214;20.30;;;;2.65;30;
coupled 1 plant;501;18/09/2014;05:10:00;215;20.30;;;;2.59;29;
coupled 1 plant;501;18/09/2014;05:15:00;216;20.30;;;;2.56;29;
coupled 1 plant;501;18/09/2014;05:20:00;217;20.30;;;;2.53;29;
coupled 1 plant;501;18/09/2014;05:25:00;218;20.20;;;;2.50;28;
coupled 1 plant;501;18/09/2014;05:30:00;219;20.20;;;;2.50;28;
coupled 1 plant;501;18/09/2014;05:35:00;220;20.20;;;;2.51;28;
coupled 1 plant;501;18/09/2014;05:40:00;221;20.20;;;;2.54;29;
coupled 1 plant;501;18/09/2014;05:45:00;222;20.20;;;;2.55;29;
coupled 1 plant;501;18/09/2014;05:50:00;223;20.20;;;;2.55;29;
coupled 1 plant;501;18/09/2014;05:55:00;224;20.20;;;;2.58;29;
coupled 1 plant;501;18/09/2014;06:00:00;225;20.20;;;;2.60;29;
coupled 1 plant;501;18/09/2014;06:05:00;226;20.10;;;;2.56;29;
coupled 1 plant;501;18/09/2014;06:10:00;227;20.10;;;;2.57;29;
coupled 1 plant;501;18/09/2014;06:15:00;228;20.10;;;;2.56;29;
coupled 1 plant;501;18/09/2014;06:20:00;229;20.10;;;;2.54;29;
coupled 1 plant;501;18/09/2014;06:25:00;230;20.10;;;;2.54;29;
coupled 1 plant;501;18/09/2014;06:30:00;231;20.10;;;;2.54;29;
coupled 1 plant;501;18/09/2014;06:35:00;232;20.00;;;;2.44;27;
coupled 1 plant;501;18/09/2014;06:40:00;233;20.00;;;;2.44;27;
coupled 1 plant;501;18/09/2014;06:45:00;234;20.00;;;;2.38;27;
coupled 1 plant;501;18/09/2014;06:50:00;235;20.00;;;;2.34;26;
coupled 1 plant;501;18/09/2014;06:55:00;236;20.00;;;;2.33;26;
coupled 1 plant;501;18/09/2014;07:00:00;237;20.00;;;;2.35;26;
coupled 1 plant;501;18/09/2014;07:05:00;238;20.00;;;;2.35;26;
coupled 1 plant;501;18/09/2014;07:10:00;239;19.90;;;;2.34;26;
coupled 1 plant;501;18/09/2014;07:15:00;240;19.90;;;;2.32;26;
coupled 1 plant;501;18/09/2014;07:20:00;241;19.90;;;;2.31;26;
coupled 1 plant;501;18/09/2014;07:25:00;242;19.90;;;;2.31;26;
coupled 1 plant;501;18/09/2014;07:30:00;243;19.90;;;;2.30;26;
coupled 1 plant;501;18/09/2014;07:35:00;244;19.90;;;;2.24;25;
coupled 1 plant;501;18/09/2014;07:40:00;245;19.80;;;;2.22;25;
coupled 1 plant;501;18/09/2014;07:45:00;246;19.80;;;;2.27;25;
coupled 1 plant;501;18/09/2014;07:50:00;247;19.80;;;;2.27;25;
coupled 1 plant;501;18/09/2014;07:55:00;248;19.80;;;;2.28;25;
coupled 1 plant;501;18/09/2014;08:00:00;249;19.80;;;;2.31;26;
coupled 1 plant;501;18/09/2014;08:05:00;250;19.80;;;;2.32;26;
coupled 1 plant;501;18/09/2014;08:10:00;251;19.80;;;;2.39;27;
coupled 1 plant;501;18/09/2014;08:15:00;252;19.80;;;;2.39;27;
coupled 1 plant;501;18/09/2014;08:20:00;253;19.80;;;;2.42;27;
coupled 1 plant;501;18/09/2014;08:25:00;254;19.80;;;;2.43;27;
coupled 1 plant;501;18/09/2014;08:30:00;255;19.80;;;;2.37;27;
coupled 1 plant;501;18/09/2014;08:35:00;256;19.80;;;;2.38;27;
coupled 1 plant;501;18/09/2014;08:40:00;257;19.70;;;;2.39;27;
coupled 1 plant;501;18/09/2014;08:45:00;258;19.70;;;;2.40;27;
coupled 1 plant;501;18/09/2014;08:50:00;259;19.70;;;;2.36;26;
coupled 1 plant;501;18/09/2014;08:55:00;260;19.80;;;;2.39;27;
coupled 1 plant;501;18/09/2014;09:00:00;261;19.70;;;;2.37;26;
coupled 1 plant;501;18/09/2014;09:05:00;262;19.70;;;;2.40;27;
coupled 1 plant;501;18/09/2014;09:10:00;263;19.70;;;;2.38;27;
coupled 1 plant;501;18/09/2014;09:15:00;264;19.70;;;;2.42;27;
coupled 1 plant;501;18/09/2014;09:20:00;265;19.70;;;;2.40;27;
coupled 1 plant;501;18/09/2014;09:25:00;266;19.80;;;;2.45;27;
coupled 1 plant;501;18/09/2014;09:30:00;267;19.80;;;;2.49;28;
coupled 1 plant;501;18/09/2014;09:35:00;268;19.70;;;;2.49;28;
coupled 1 plant;501;18/09/2014;09:40:00;269;19.70;;;;2.48;28;
coupled 1 plant;501;18/09/2014;09:45:00;270;19.70;;;;2.49;28;
coupled 1 plant;501;18/09/2014;09:50:00;271;19.70;;;;2.55;28;
coupled 1 plant;501;18/09/2014;09:55:00;272;19.80;;;;2.59;29;
coupled 1 plant;501;18/09/2014;10:00:00;273;19.80;;;;2.69;30;
coupled 1 plant;501;18/09/2014;10:05:00;274;19.80;;;;2.73;31;
semi-intensive 1;504;18/09/2014;11:30:00;1;20.37;6.69;-385.38;460.30;;;
semi-intensive 1;504;18/09/2014;11:35:00;2;20.38;6.75;-396.43;461.71;;;
semi-intensive 1;504;18/09/2014;11:40:00;3;20.38;6.70;-386.92;459.09;;;
semi-intensive 1;504;18/09/2014;11:45:00;4;20.37;6.70;-392.88;460.00;;;
semi-intensive 1;504;18/09/2014;11:50:00;5;20.37;6.70;-392.29;460.95;;;
semi-intensive 1;504;18/09/2014;11:55:00;6;20.37;6.69;-390.56;461.27;;;
semi-intensive 1;504;18/09/2014;12:00:00;7;20.38;6.67;-389.02;460.98;;;
semi-intensive 1;504;18/09/2014;12:05:00;8;20.38;6.68;-389.33;461.54;;;
semi-intensive 1;504;18/09/2014;12:10:00;9;20.38;6.69;-389.30;460.95;;;
semi-intensive 1;504;18/09/2014;12:15:00;10;20.39;6.69;-389.26;462.01;;;
semi-intensive 1;504;18/09/2014;12:20:00;11;20.40;6.70;-389.99;462.24;;;
semi-intensive 1;504;18/09/2014;12:25:00;12;20.40;6.71;-390.43;464.02;;;
semi-intensive 1;504;18/09/2014;12:30:00;13;20.40;6.72;-390.59;462.95;;;
semi-intensive 1;504;18/09/2014;12:35:00;14;20.41;6.72;-390.65;463.18;;;
semi-intensive 1;504;18/09/2014;12:40:00;15;20.41;6.72;-390.53;463.19;;;
semi-intensive 1;504;18/09/2014;12:45:00;16;20.41;6.72;-390.03;467.71;;;
semi-intensive 1;504;18/09/2014;12:50:00;17;20.41;6.71;-389.20;464.86;;;
semi-intensive 1;504;18/09/2014;12:55:00;18;20.42;6.72;-389.87;466.08;;;
semi-intensive 1;504;18/09/2014;13:00:00;19;20.42;6.72;-389.55;467.32;;;
semi-intensive 1;504;18/09/2014;13:05:00;20;20.43;6.72;-389.17;466.90;;;
semi-intensive 1;504;18/09/2014;13:10:00;21;20.43;6.73;-389.95;467.24;;;
semi-intensive 1;504;18/09/2014;13:15:00;22;20.44;6.73;-390.10;467.98;;;
semi-intensive 1;504;18/09/2014;13:20:00;23;20.45;6.73;-389.77;467.01;;;
semi-intensive 1;504;18/09/2014;13:25:00;24;20.46;6.72;-388.98;465.26;;;
semi-intensive 1;504;18/09/2014;13:30:00;25;20.46;6.73;-389.35;465.09;;;
semi-intensive 1;504;18/09/2014;13:35:00;26;20.47;6.73;-389.17;464.87;;;
semi-intensive 1;504;18/09/2014;13:40:00;27;20.48;6.72;-388.62;464.20;;;
semi-intensive 1;504;18/09/2014;13:45:00;28;20.50;6.74;-390.16;466.50;;;
semi-intensive 1;504;18/09/2014;13:50:00;29;20.51;6.75;-390.27;466.30;;;
semi-intensive 1;504;18/09/2014;13:55:00;30;20.51;6.75;-390.26;466.79;;;
semi-intensive 1;504;18/09/2014;14:00:00;31;20.51;6.75;-390.16;468.87;;;
semi-intensive 1;504;18/09/2014;14:05:00;32;20.51;6.74;-389.51;467.37;;;
semi-intensive 1;504;18/09/2014;14:10:00;33;20.51;6.75;-390.04;468.61;;;
semi-intensive 1;504;18/09/2014;14:15:00;34;20.52;6.75;-390.03;471.53;;;
semi-intensive 1;504;18/09/2014;14:20:00;35;20.52;6.75;-389.97;473.37;;;
semi-intensive 1;504;18/09/2014;14:25:00;36;20.52;6.76;-390.02;475.83;;;
semi-intensive 1;504;18/09/2014;14:30:00;37;20.52;6.75;-389.56;481.93;;;
semi-intensive 1;504;18/09/2014;14:35:00;38;20.52;6.76;-390.18;483.56;;;
semi-intensive 1;504;18/09/2014;14:40:00;39;20.52;6.76;-390.15;484.31;;;
semi-intensive 1;504;18/09/2014;14:45:00;40;20.52;6.76;-389.87;484.05;;;
semi-intensive 1;504;18/09/2014;14:50:00;41;20.52;6.75;-389.03;485.04;;;
semi-intensive 1;504;18/09/2014;14:55:00;42;20.53;6.77;-390.26;490.01;;;
semi-intensive 1;504;18/09/2014;15:00:00;43;20.53;6.77;-390.14;489.51;;;
semi-intensive 1;504;18/09/2014;15:05:00;44;20.53;6.77;-389.79;488.80;;;
semi-intensive 1;504;18/09/2014;15:10:00;45;20.53;6.77;-389.36;489.53;;;
semi-intensive 1;504;18/09/2014;15:15:00;46;20.53;6.76;-388.81;493.43;;;
semi-intensive 1;504;18/09/2014;15:20:00;47;20.53;6.78;-389.80;498.43;;;
semi-intensive 1;504;18/09/2014;15:25:00;48;20.53;6.78;-389.87;499.52;;;
semi-intensive 1;504;18/09/2014;15:30:00;49;20.53;6.78;-389.75;500.41;;;
semi-intensive 1;504;18/09/2014;15:35:00;50;20.53;6.78;-389.36;501.91;;;
semi-intensive 1;504;18/09/2014;15:40:00;51;20.53;6.77;-388.59;500.52;;;
semi-intensive 1;504;18/09/2014;15:45:00;52;20.53;6.79;-390.47;501.20;;;
semi-intensive 1;504;18/09/2014;15:50:00;53;20.54;6.80;-390.67;501.21;;;
semi-intensive 1;504;18/09/2014;15:55:00;54;20.54;6.80;-390.67;501.10;;;
semi-intensive 1;504;18/09/2014;16:00:00;55;20.54;6.80;-390.53;501.24;;;
semi-intensive 1;504;18/09/2014;16:05:00;56;20.54;6.80;-390.12;501.00;;;
semi-intensive 1;504;18/09/2014;16:10:00;57;20.54;6.80;-389.83;501.01;;;
semi-intensive 1;504;18/09/2014;16:15:00;58;20.54;6.79;-388.66;500.79;;;
semi-intensive 1;504;18/09/2014;16:20:00;59;20.54;6.80;-390.07;501.85;;;
semi-intensive 1;504;18/09/2014;16:25:00;60;20.54;6.79;-389.51;500.73;;;
semi-intensive 1;504;18/09/2014;16:30:00;61;20.54;6.80;-389.61;501.93;;;
semi-intensive 1;504;18/09/2014;16:35:00;62;20.54;6.80;-389.87;499.66;;;
semi-intensive 1;504;18/09/2014;16:40:00;63;20.55;6.80;-389.94;501.09;;;
semi-intensive 1;504;18/09/2014;16:45:00;64;20.56;6.80;-389.81;501.32;;;
semi-intensive 1;504;18/09/2014;16:50:00;65;20.57;6.80;-389.21;503.17;;;
semi-intensive 1;504;18/09/2014;16:55:00;66;20.58;6.80;-388.81;503.74;;;
semi-intensive 1;504;18/09/2014;17:00:00;67;20.59;6.81;-390.10;504.15;;;
semi-intensive 1;504;18/09/2014;17:05:00;68;20.60;6.81;-390.29;505.00;;;
semi-intensive 1;504;18/09/2014;17:10:00;69;20.63;6.82;-390.22;505.56;;;
semi-intensive 1;504;18/09/2014;17:15:00;70;20.63;6.82;-390.13;505.55;;;
semi-intensive 1;504;18/09/2014;17:20:00;71;20.65;6.81;-389.54;505.28;;;
semi-intensive 1;504;18/09/2014;17:25:00;72;20.65;6.81;-389.23;507.43;;;
semi-intensive 1;504;18/09/2014;17:30:00;73;20.66;6.78;-387.22;507.48;;;
semi-intensive 1;504;18/09/2014;17:35:00;74;20.67;6.80;-389.24;507.84;;;
semi-intensive 1;504;18/09/2014;17:40:00;75;20.68;6.82;-389.77;507.94;;;
semi-intensive 1;504;18/09/2014;17:45:00;76;20.69;6.82;-389.95;509.09;;;
semi-intensive 1;504;18/09/2014;17:50:00;77;20.69;6.82;-389.84;509.05;;;
semi-intensive 1;504;18/09/2014;17:55:00;78;20.71;6.82;-389.72;510.23;;;
semi-intensive 1;504;18/09/2014;18:00:00;79;20.73;6.81;-389.14;510.58;;;
semi-intensive 1;504;18/09/2014;18:05:00;80;20.74;6.80;-387.75;509.62;;;
semi-intensive 1;504;18/09/2014;18:10:00;81;20.75;6.81;-388.80;510.26;;;
semi-intensive 1;504;18/09/2014;18:15:00;82;20.75;6.82;-389.49;511.05;;;
semi-intensive 1;504;18/09/2014;18:20:00;83;20.76;6.83;-389.63;511.57;;;
semi-intensive 1;504;18/09/2014;18:25:00;84;20.76;6.83;-389.69;511.47;;;
semi-intensive 1;504;18/09/2014;18:30:00;85;20.77;6.82;-388.93;509.85;;;
semi-intensive 1;504;18/09/2014;18:35:00;86;20.77;6.82;-388.71;511.00;;;
semi-intensive 1;504;18/09/2014;18:40:00;87;20.78;6.82;-388.56;512.05;;;
semi-intensive 1;504;18/09/2014;18:45:00;88;20.79;6.81;-388.37;512.57;;;
semi-intensive 1;504;18/09/2014;18:50:00;89;20.80;6.82;-388.37;513.84;;;
semi-intensive 1;504;18/09/2014;18:55:00;90;20.80;6.80;-387.08;515.40;;;
semi-intensive 1;504;18/09/2014;19:00:00;91;20.81;6.81;-387.74;516.23;;;
semi-intensive 1;504;18/09/2014;19:05:00;92;20.82;6.79;-386.25;516.46;;;
semi-intensive 1;504;18/09/2014;19:10:00;93;20.83;6.80;-387.15;516.62;;;
semi-intensive 1;504;18/09/2014;19:15:00;94;20.85;6.81;-387.61;517.07;;;
semi-intensive 1;504;18/09/2014;19:20:00;95;20.85;6.81;-387.80;517.93;;;
semi-intensive 1;504;18/09/2014;19:25:00;96;20.85;6.80;-386.98;518.10;;;
semi-intensive 1;504;18/09/2014;19:30:00;97;20.86;6.82;-388.19;518.84;;;
semi-intensive 1;504;18/09/2014;19:35:00;98;20.86;6.82;-388.49;519.64;;;
semi-intensive 1;504;18/09/2014;19:40:00;99;20.87;6.81;-387.85;519.37;;;
semi-intensive 1;504;18/09/2014;19:45:00;100;20.87;6.84;-389.59;520.53;;;
semi-intensive 1;504;18/09/2014;19:50:00;101;20.87;6.84;-389.94;520.88;;;
semi-intensive 1;504;18/09/2014;19:55:00;102;20.88;6.84;-389.86;521.17;;;
semi-intensive 1;504;18/09/2014;20:00:00;103;20.88;6.84;-389.16;521.43;;;
semi-intensive 1;504;18/09/2014;20:05:00;104;20.88;6.82;-387.81;521.72;;;
semi-intensive 1;504;18/09/2014;20:10:00;105;20.88;6.82;-388.01;522.23;;;
semi-intensive 1;504;18/09/2014;20:15:00;106;20.89;6.84;-389.20;521.99;;;
semi-intensive 1;504;18/09/2014;20:20:00;107;20.89;6.83;-388.81;522.71;;;
semi-intensive 1;504;18/09/2014;20:25:00;108;20.90;6.84;-388.94;522.18;;;
semi-intensive 1;504;18/09/2014;20:30:00;109;20.90;6.84;-388.89;522.44;;;
semi-intensive 1;504;18/09/2014;20:35:00;110;20.90;6.84;-388.90;522.50;;;
semi-intensive 1;504;18/09/2014;20:40:00;111;20.90;6.83;-388.65;523.60;;;
semi-intensive 1;504;18/09/2014;20:45:00;112;20.91;6.83;-388.17;523.98;;;
semi-intensive 1;504;18/09/2014;20:50:00;113;20.91;6.82;-387.04;524.27;;;
semi-intensive 1;504;18/09/2014;20:55:00;114;20.91;6.81;-386.77;525.22;;;
semi-intensive 1;504;18/09/2014;21:00:00;115;20.91;6.84;-388.46;524.55;;;
semi-intensive 1;504;18/09/2014;21:05:00;116;20.91;6.84;-388.59;524.73;;;
semi-intensive 1;504;18/09/2014;21:10:00;117;20.91;6.84;-388.80;525.49;;;
semi-intensive 1;504;18/09/2014;21:15:00;118;20.91;6.84;-388.79;526.32;;;
semi-intensive 1;504;18/09/2014;21:20:00;119;20.91;6.84;-388.72;527.04;;;
semi-intensive 1;504;18/09/2014;21:25:00;120;20.91;6.84;-388.61;527.14;;;
semi-intensive 1;504;18/09/2014;21:30:00;121;20.91;6.84;-388.35;527.86;;;
semi-intensive 1;504;18/09/2014;21:35:00;122;20.91;6.84;-387.90;528.51;;;
semi-intensive 1;504;18/09/2014;21:40:00;123;20.91;6.82;-386.97;527.08;;;
semi-intensive 1;504;18/09/2014;21:45:00;124;20.91;6.81;-385.86;528.03;;;
semi-intensive 1;504;18/09/2014;21:50:00;125;20.91;6.83;-387.43;527.66;;;
semi-intensive 1;504;18/09/2014;21:55:00;126;20.91;6.82;-386.81;528.57;;;
semi-intensive 1;504;18/09/2014;22:00:00;127;20.91;6.81;-386.45;528.57;;;
semi-intensive 1;504;18/09/2014;22:05:00;128;20.91;6.82;-386.55;529.67;;;
semi-intensive 1;504;18/09/2014;22:10:00;129;20.91;6.82;-386.51;530.02;;;
semi-intensive 1;504;18/09/2014;22:15:00;130;20.91;6.81;-385.69;530.64;;;
semi-intensive 1;504;18/09/2014;22:20:00;131;20.91;6.81;-385.37;531.19;;;
semi-intensive 1;504;18/09/2014;22:25:00;132;20.91;6.83;-387.09;531.79;;;
semi-intensive 1;504;18/09/2014;22:30:00;133;20.90;6.81;-386.08;532.41;;;
semi-intensive 1;504;18/09/2014;22:35:00;134;20.90;6.83;-387.09;533.22;;;